Regional Weather Roundup
Issued by NWS

Home | Current Version | Previous Version | Text Only | Print | Product List | Glossary On
Versions: 1 2 3 4 5 6 7 8 9 10 11 12 13 14 15 16 17 18 19 20 21 22 23 24 25 26 27 28 29 30 31 32 33 34 35 36 37 38 39 40 41 42 43 44 45 46 47 48 49 50
000
ASUS43 KFSD 201910
RWRSD

WEATHER ROUNDUP FOR SOUTH DAKOTA
NATIONAL WEATHER SERVICE SIOUX FALLS SD
200 PM CDT WED SEP 20 2017

NOTE: "FAIR" INDICATES FEW OR NO CLOUDS BELOW 12,000 FEET WITH NO
SIGNIFICANT WEATHER AND/OR OBSTRUCTIONS TO VISIBILITY.


SDZ001>005-009-010-012>017-202000-
NORTHWEST AND NORTH CENTRAL SOUTH DAKOTA

CITY           SKY/WX    TMP DP  RH WIND       PRES   REMARKS
FAITH            N/A     66  31  27 W13       29.76F
MOBRIDGE       SUNNY     71  39  31 SW12      29.74F
$$

SDZ012>016-024>037-041>051-057-063-072>074-202000-
SOUTHWEST AND SOUTH CENTRAL SOUTH DAKOTA

CITY           SKY/WX    TMP DP  RH WIND       PRES   REMARKS
RAPID CTY ARPT SUNNY     66  27  22 W15G21    29.79F
PIERRE         SUNNY     71  35  26 W12       29.78F
CUSTER         SUNNY     57  18  21 W22G36    29.85S
ELLSWORTH AFB  SUNNY     67  26  21 W12G22    29.78
PHILIP         SUNNY     72  30  21 SW17G23   29.79F
SPEARFISH      FAIR      63  27  25 SW15G29   29.78F
WINNER         FAIR      74  34  23 W17G26    29.84S
$$

SDZ004>011-016>023-039-040-202000-
NORTHEAST SOUTH DAKOTA

CITY           SKY/WX    TMP DP  RH WIND       PRES   REMARKS
ABERDEEN       SUNNY     70  39  32 S10G16    29.80F
WATERTOWN      SUNNY     66  42  41 W13       29.83S
BROOKINGS      SUNNY     66  41  40 W8        29.86S
$$

SDZ017-020-022-023-036>040-048>070-202000-
SOUTHEAST SOUTH DAKOTA

CITY           SKY/WX    TMP DP  RH WIND       PRES   REMARKS
SIOUX FALLS    MOSUNNY   68  50  52 S5        29.87S
HURON          SUNNY     70  41  34 SW13      29.83F
CHAMBERLAIN    SUNNY     73  42  32 SW9G21    29.84S
MITCHELL       SUNNY     71  37  28 SW9       29.85F
YANKTON        SUNNY     69  47  45 SW9       29.89R
$$

ABBREVIATIONS USED IN REMARKS
   TC - TEMPERATURE IN CELSIUS
  WCI - WIND CHILL INDEX
   HX - HEAT INDEX
  VSB - VISIBILITY





USA.gov is the U.S. government's official web portal to all federal, state and local government web resources and services.